Starlink 30704

operational
NORAD ID: 57946 Int'l Des: 2023-148 Owner: SPXS Country: US Constellation: starlink
LEOCIRCULAR

About Starlink 30704

Description loading...

Live Position

Loading 3D Globe...

Upcoming Passes

Altitude History

Altitude vs Time

uPlot chart will show altitude changes over time

Two-Line Element Set

1 57946U 23148M 25351.10447663 .00003222 00000-0 12081-3 0 9990
2 57946 53.1623 125.0496 0001165 82.9126 277.2007 15.30209167124670
Epoch: Dec 17, 2025 • Age: 12 hours

Current Status

Altitude 475.4 km
Velocity 7.63 km/s
Sub-Earth Point 7.36°N, 2.54°W
Launch Date Sep 25, 2023
Age 2.2 years
Type internet

Technical Details

Classification Payload
Mass 730.00 kg
Dry Mass 700.00 kg
Total Mass 730.00 kg
Length 0.30 m
Diameter 4.10 m
Span 29.00 m
Shape Box + pan
Manufacturer SPXS
Bus Type Starlink V2M
Phase Status In Orbit
Owner/State SPXS/US

Large Constellations

Loading constellations...